• In Hungary
  • List of Countries
  • For 7 days
  • Water Temperature
  • Satellite Maps
  • Weather Map
  • News
  • Weather Widgets
  • user-avatar
    Login

    Hourly Weather Strizkov

    Today, 17 October, Tuesday

    Time Temperature Precipitation Wind Pressure Humidity
    00:00 +14°C° 0 mm 1 mps 742 mmHg 82%
    01:00 +14°C° 0 mm 1 mps 742 mmHg 83%
    02:00 +14°C° 0 mm 1 mps 742 mmHg 83%
    03:00 +13°C° 0 mm 1 mps 742 mmHg 83%
    04:00 +13°C° 0 mm 1 mps 742 mmHg 83%
    05:00 +13°C° 0 mm 1 mps 742 mmHg 83%
    06:00 +13°C° 0 mm 1 mps 742 mmHg 83%
    07:00 +13°C° 0 mm 1 mps 742 mmHg 82%
    08:00 +15°C° 0 mm 1 mps 742 mmHg 75%
    09:00 +18°C° 0 mm 1 mps 742 mmHg 68%
    10:00 +20°C° 0 mm 1 mps 742 mmHg 60%
    11:00 +21°C° 0 mm 1 mps 742 mmHg 56%
    12:00 +22°C° 0 mm 1 mps 741 mmHg 52%
    13:00 +23°C° 0 mm 1 mps 741 mmHg 48%
    14:00 +23°C° 0 mm 1 mps 741 mmHg 51%
    15:00 +22°C° 0 mm 1 mps 740 mmHg 55%
    16:00 +22°C° 0 mm 1 mps 739 mmHg 58%
    17:00 +20°C° 0 mm 1 mps 739 mmHg 63%
    18:00 +18°C° 0 mm 1 mps 739 mmHg 69%
    19:00 +16°C° 0 mm 1 mps 739 mmHg 74%
    20:00 +15°C° 0 mm 1 mps 739 mmHg 77%
    21:00 +14°C° 0 mm 1 mps 739 mmHg 80%
    22:00 +14°C° 0 mm 1 mps 738 mmHg 83%
    23:00 +13°C° 0 mm 1 mps 738 mmHg 85%

    Tomorrow, 18 October, Wednesday

    Time Temperature Precipitation Wind Pressure Humidity
    00:00 +13°C° 0 mm 1 mps 738 mmHg 87%
    01:00 +13°C° 0 mm 1 mps 738 mmHg 88%
    02:00 +12°C° 0 mm 1 mps 738 mmHg 89%
    03:00 +12°C° 0 mm 1 mps 737 mmHg 90%
    04:00 +12°C° 0 mm 1 mps 737 mmHg 90%
    05:00 +11°C° 0 mm 1 mps 737 mmHg 91%
    06:00 +11°C° 0 mm 1 mps 737 mmHg 91%
    07:00 +10°C° 0 mm 0 mps 737 mmHg 92%
    08:00 +13°C° 0 mm 1 mps 737 mmHg 86%
    09:00 +14°C° 0 mm 1 mps 737 mmHg 80%
    10:00 +16°C° 0 mm 1 mps 737 mmHg 74%
    11:00 +18°C° 0 mm 1 mps 736 mmHg 69%
    12:00 +19°C° 0 mm 1 mps 736 mmHg 65%
    13:00 +20°C° 0 mm 1 mps 736 mmHg 61%
    14:00 +20°C° 0 mm 1 mps 735 mmHg 64%
    15:00 +19°C° 0 mm 1 mps 735 mmHg 66%
    16:00 +17°C° 0 mm 0 mps 735 mmHg 68%
    17:00 +16°C° 0 mm 0 mps 735 mmHg 73%
    18:00 +14°C° 0 mm 0 mps 735 mmHg 79%
    19:00 +13°C° 0 mm 0 mps 735 mmHg 84%
    20:00 +12°C° 0 mm 0 mps 735 mmHg 85%
    21:00 +12°C° 0 mm 0 mps 735 mmHg 86%
    22:00 +13°C° 0 mm 1 mps 735 mmHg 87%
    23:00 +12°C° 0 mm 1 mps 735 mmHg 87%

    Day after tomorrow, 19 October, Thursday

    Time Temperature Precipitation Wind Pressure Humidity
    00:00 +12°C° 0 mm 1 mps 735 mmHg 88%
    01:00 +12°C° 0 mm 1 mps 735 mmHg 88%
    02:00 +11°C° 0 mm 1 mps 735 mmHg 89%
    03:00 +11°C° 0 mm 1 mps 735 mmHg 89%
    04:00 +11°C° 0 mm 1 mps 735 mmHg 89%
    05:00 +11°C° 0 mm 1 mps 735 mmHg 89%
    06:00 +11°C° 0 mm 1 mps 735 mmHg 89%
    07:00 +10°C° 0 mm 1 mps 735 mmHg 88%
    08:00 +12°C° 0 mm 1 mps 735 mmHg 81%
    09:00 +14°C° 0 mm 1 mps 735 mmHg 73%
    10:00 +16°C° 0 mm 1 mps 736 mmHg 65%
    11:00 +18°C° 0 mm 1 mps 736 mmHg 61%
    12:00 +20°C° 0 mm 1 mps 736 mmHg 56%
    13:00 +21°C° 0 mm 1 mps 735 mmHg 51%
    14:00 +20°C° 0 mm 1 mps 735 mmHg 53%
    15:00 +20°C° 0 mm 1 mps 735 mmHg 56%
    16:00 +20°C° 0 mm 1 mps 735 mmHg 58%
    17:00 +18°C° 0 mm 1 mps 735 mmHg 62%
    18:00 +16°C° 0 mm 1 mps 735 mmHg 66%
    19:00 +14°C° 0 mm 1 mps 735 mmHg 70%
    20:00 +14°C° 0 mm 1 mps 735 mmHg 72%
    21:00 +13°C° 0 mm 1 mps 735 mmHg 73%
    22:00 +13°C° 0 mm 1 mps 736 mmHg 75%
    23:00 +12°C° 0 mm 1 mps 735 mmHg 76%

    20 October, Friday

    Time Temperature Precipitation Wind Pressure Humidity
    00:00 +12°C° 0 mm 1 mps 735 mmHg 77%
    01:00 +12°C° 0 mm 1 mps 735 mmHg 79%
    02:00 +11°C° 0 mm 1 mps 735 mmHg 80%
    03:00 +11°C° 0 mm 1 mps 735 mmHg 81%
    04:00 +11°C° 0 mm 1 mps 735 mmHg 83%
    05:00 +11°C° 0 mm 1 mps 735 mmHg 83%
    06:00 +11°C° 0 mm 1 mps 736 mmHg 83%
    07:00 +11°C° 0 mm 1 mps 736 mmHg 84%
    08:00 +13°C° 0 mm 2 mps 736 mmHg 77%
    09:00 +14°C° 0 mm 2 mps 736 mmHg 70%
    10:00 +16°C° 0 mm 2 mps 737 mmHg 64%
    11:00 +17°C° 0 mm 3 mps 737 mmHg 60%
    12:00 +19°C° 0 mm 3 mps 737 mmHg 57%
    13:00 +20°C° 0 mm 4 mps 737 mmHg 53%
    14:00 +20°C° 0 mm 3 mps 736 mmHg 56%
    15:00 +20°C° 0 mm 3 mps 736 mmHg 59%
    16:00 +19°C° 0 mm 3 mps 736 mmHg 62%
    17:00 +18°C° 0 mm 3 mps 736 mmHg 66%
    18:00 +17°C° 0 mm 3 mps 737 mmHg 71%
    19:00 +14°C° 0 mm 3 mps 737 mmHg 75%
    20:00 +14°C° 0 mm 3 mps 737 mmHg 76%
    21:00 +14°C° 0 mm 3 mps 737 mmHg 78%
    22:00 +13°C° 0 mm 3 mps 737 mmHg 79%
    23:00 +14°C° 0 mm 2 mps 737 mmHg 80%

    21 October, Saturday

    Time Temperature Precipitation Wind Pressure Humidity
    00:00 +13°C° 0 mm 2 mps 737 mmHg 81%
    01:00 +13°C° 0 mm 2 mps 737 mmHg 82%
    02:00 +13°C° 0 mm 2 mps 736 mmHg 82%
    03:00 +13°C° 0 mm 2 mps 736 mmHg 82%
    04:00 +13°C° 0 mm 2 mps 736 mmHg 82%
    05:00 +13°C° 0 mm 2 mps 736 mmHg 81%
    06:00 +13°C° 0 mm 2 mps 736 mmHg 80%
    07:00 +13°C° 0 mm 2 mps 736 mmHg 79%
    08:00 +14°C° 0 mm 2 mps 736 mmHg 73%
    09:00 +16°C° 0 mm 3 mps 736 mmHg 66%
    10:00 +18°C° 0 mm 3 mps 736 mmHg 59%
    11:00 +19°C° 0 mm 3 mps 736 mmHg 56%
    12:00 +20°C° 0 mm 4 mps 735 mmHg 53%
    13:00 +21°C° 0 mm 4 mps 735 mmHg 50%
    14:00 +21°C° 0 mm 3 mps 735 mmHg 53%
    15:00 +20°C° 0 mm 3 mps 735 mmHg 56%
    16:00 +20°C° 0 mm 2 mps 734 mmHg 59%
    17:00 +19°C° 0 mm 2 mps 735 mmHg 63%
    18:00 +17°C° 0 mm 2 mps 735 mmHg 66%
    19:00 +16°C° 0 mm 2 mps 735 mmHg 69%
    20:00 +16°C° 0.1 mm 2 mps 735 mmHg 71%
    21:00 +16°C° 0.1 mm 2 mps 735 mmHg 74%
    22:00 +15°C° 0.1 mm 2 mps 735 mmHg 76%
    23:00 +15°C° 0.2 mm 2 mps 735 mmHg 79%

    22 October, Sunday

    Time Temperature Precipitation Wind Pressure Humidity
    00:00 +15°C° 0.2 mm 2 mps 735 mmHg 83%
    01:00 +15°C° 0.2 mm 2 mps 735 mmHg 86%
    02:00 +14°C° 1.1 mm 2 mps 735 mmHg 88%
    03:00 +14°C° 1.1 mm 2 mps 735 mmHg 89%
    04:00 +13°C° 1.1 mm 3 mps 735 mmHg 90%
    05:00 +12°C° 1 mm 3 mps 735 mmHg 90%
    06:00 +12°C° 1 mm 3 mps 735 mmHg 90%
    07:00 +11°C° 1 mm 3 mps 735 mmHg 89%
    08:00 +11°C° 0.8 mm 3 mps 735 mmHg 88%
    09:00 +11°C° 0.8 mm 3 mps 736 mmHg 87%
    10:00 +11°C° 0.8 mm 3 mps 736 mmHg 87%
    11:00 +11°C° 0.5 mm 3 mps 736 mmHg 84%
    12:00 +11°C° 0.5 mm 4 mps 736 mmHg 82%
    13:00 +11°C° 0.5 mm 4 mps 736 mmHg 79%
    14:00 +11°C° 0.2 mm 4 mps 736 mmHg 77%
    15:00 +11°C° 0.2 mm 4 mps 736 mmHg 75%
    16:00 +11°C° 0.2 mm 4 mps 736 mmHg 72%
    17:00 +10°C° 0 mm 4 mps 736 mmHg 74%
    18:00 +8°C° 0 mm 4 mps 736 mmHg 76%
    19:00 +8°C° 0 mm 4 mps 737 mmHg 78%
    20:00 +7°C° 0 mm 4 mps 737 mmHg 79%
    21:00 +7°C° 0 mm 4 mps 737 mmHg 79%
    22:00 +6°C° 0 mm 4 mps 737 mmHg 80%
    23:00 +6°C° 0 mm 4 mps 737 mmHg 80%
    Show more